Flag for Germany Weather past 2 weeks in Hoyerswerda, Saxony, Germany

Now
69 °F

Passing clouds.


Feels Like: 69 °F
Forecast: 51 / 76 °F
Wind: 2 mph from Northwest

Location: Cottbus

Current Time: Aug 28, 2014 at 1:21:44 PM

Latest Report: Aug 28, 2014 at 1:00 PM


Visibility: 28 mi

Pressure: 30.07 "Hg

Humidity: 40%

Dew point: 44 °F

Location of HoyerswerdaLocation

Historic Weather in Hoyerswerda — Graph

°F

Hoyerswerda temperature yesterday

Maximum temperature yesterday: 69 °F (at 5:00 PM)
Minimum temperature yesterday: 45 °F (at 7:00 AM)
Average temperature yesterday: 55 °F

Past Weeks' High & Low Weather Summary

 TemperatureHumidityPressure
High74 °F (Aug 13, 3:00 PM)100% (Aug 27, 7:00 AM)30.09 "Hg (Aug 27, 7:00 AM)
Low43 °F (Aug 25, 6:00 AM)35% (Aug 22, 4:00 PM)29.63 "Hg (Aug 14, 12:00 AM)
Average59 °F74%29.89 "Hg
* Reported Aug 13 12:00 Noon — Aug 28 12:00 Noon, Hoyerswerda, Weather by CustomWeather, © 2014

Note: Actual official high and low records may vary slightly from our data, if they occured in-between our weather recording intervals... More about our weather records

Advertising

Hoyerswerda weather history for previous 24 hours

 ConditionsComfort  
Time TempWeatherWind HumidityBarometerVisibility
12:00 PM
Aug 28
68 °FPassing clouds.2 mph50%30.08 "Hg25 mi
11:00 AM65 °FSunny.3 mph54%30.09 "Hg22 mi
10:00 AM61 °FSunny.2 mph63%30.09 "Hg19 mi
9:00 AM56 °FSunny.2 mph73%30.09 "Hg16 mi
8:00 AM51 °FSunny.1 mph85%30.08 "Hg13 mi
7:00 AM45 °FPassing clouds.1 mph97%30.07 "Hg9 mi
6:00 AM46 °FClear.2 mph98%30.06 "Hg10 mi
5:00 AM44 °FClear.2 mph98%30.06 "Hg6 mi
4:00 AM45 °FClear.1 mph98%30.05 "Hg6 mi
3:00 AM46 °FClear.2 mph97%30.04 "Hg10 mi
2:00 AM46 °FClear.1 mph96%30.05 "Hg10 mi
1:00 AM48 °FOvercast.1 mph97%30.04 "Hg16 mi
12:00 AM49 °FPassing clouds.2 mph96%30.04 "Hg12 mi
11:00 PM
Aug 27
50 °FClear.2 mph95%30.03 "Hg17 mi
10:00 PM51 °FClear.1 mph92%30.02 "Hg18 mi
9:00 PM54 °FClear.2 mph86%30.01 "Hg22 mi
8:00 PM61 °FPassing clouds.2 mph66%29.99 "Hg28 mi
7:00 PM66 °FPartly sunny.1 mph54%29.98 "Hg28 mi
6:00 PM64 °FOvercast.2 mph60%29.97 "Hg25 mi
5:00 PM69 °FOvercast.3 mph46%29.95 "Hg28 mi
4:00 PM68 °FPassing clouds.5 mph44%29.95 "Hg22 mi
3:00 PM67 °FPartly sunny.3 mph52%29.95 "Hg34 mi
2:00 PM66 °FScattered clouds.3 mph53%29.95 "Hg31 mi
1:00 PM65 °FPassing clouds.3 mph54%29.95 "Hg34 mi
Weather by CustomWeather, © 2014

See weather overviewHow to use our weather pages